Sadsburyville, PA

4:05 AM EDT on August 25, 2016 (GMT -0400)
Chester County Carlson

Weather History for KMQS - February, 2013

Change the Weather History Date:

Tuesday, February 26, 2013

  Actual Average (KLNS) Record (KLNS)
Temperature  
Mean Temperature 36 °F -  
Max Temperature 42 °F 41 °F 62 °F (2002)
Min Temperature 30 °F 26 °F 8 °F (1990)
Degree Days  
Heating Degree Days 29    
Moisture  
Dew Point 31 °F    
Average Humidity 80    
Maximum Humidity 100    
Minimum Humidity 61    
Precipitation  
Precipitation 0.48 in - - ()
Sea Level Pressure  
Sea Level Pressure 30.09 in    
Wind  
Wind Speed 7 mph (East)    
Max Wind Speed 26 mph    
Max Gust Speed 40 mph    
Visibility 9 miles    
Events Rain    
Averages and records for this station are not official NWS values.
T = Trace of Precipitation, MM = Missing Value Source: NWS Daily Summary

Daily Weather History Graph

Daily Weather History Graph

Search for Another Location

Airport or City:

Trip Planner

Search our weather history database for the weather conditions in past years. The results will help you decide how hot, cold, wet, or windy it might be!

Date:

Astronomy

Feb. 26, 2013 Rise Set
Actual Time 6:40 AM EST 5:52 PM EST
Civil Twilight 6:13 AM EST 6:19 PM EST
Nautical Twilight 5:42 AM EST 6:50 PM EST
Astronomical Twilight 5:10 AM EST 7:22 PM EST
Moon 7:06 PM EST (2/26) 6:42 AM EST (2/26)
Length of Visible Light 12h 05m
Length of Day
11h 11m
Full, 99% of the Moon is Illuminated
Feb 26
Full
Mar 4
Last Quarter
Mar 11
New
Mar 19
First Quarter
Mar 27
Full

Hourly Weather History & Observations

Time (EST) Temp. Windchill Dew Point Humidity Pressure Visibility Wind Dir Wind Speed Gust Speed Precip Events Conditions
12:15 AM 32.0 °F - 24.8 °F 75% 30.22 in 10.0 mi Calm Calm - N/A   Clear
12:35 AM 33.8 °F - 24.8 °F 70% 30.23 in 10.0 mi Calm Calm - N/A   Clear
12:55 AM 32.0 °F - 24.8 °F 75% 30.24 in 10.0 mi Calm Calm - N/A   Clear
1:15 AM 32.0 °F - 24.8 °F 75% 30.23 in 10.0 mi Calm Calm - N/A   Clear
1:35 AM 32.0 °F 28.7 °F 26.6 °F 80% 30.23 in 10.0 mi SE 3.5 mph - N/A   Clear
1:55 AM 32.0 °F - 24.8 °F 75% 30.24 in 10.0 mi North - - N/A   Clear
2:15 AM 32.0 °F - 26.6 °F 80% 30.23 in 10.0 mi Calm Calm - N/A   Clear
2:35 AM 32.0 °F - 24.8 °F 75% 30.23 in 10.0 mi Calm Calm - N/A   Clear
2:55 AM 32.0 °F - 26.6 °F 80% 30.24 in 10.0 mi Calm Calm - N/A   Clear
3:15 AM 32.0 °F - 26.6 °F 80% 30.23 in 10.0 mi Calm Calm - N/A   Clear
3:35 AM 30.2 °F - 24.8 °F 80% 30.23 in 10.0 mi Calm Calm - N/A   Clear
3:55 AM 30.2 °F - 24.8 °F 80% 30.21 in 10.0 mi Calm Calm - N/A   Clear
4:15 AM 30.2 °F - 24.8 °F 80% 30.21 in 10.0 mi Calm Calm - N/A   Clear
4:35 AM 30.2 °F - 24.8 °F 80% 30.22 in 10.0 mi Calm Calm - N/A   Clear
4:55 AM 30.2 °F - 24.8 °F 80% 30.20 in 10.0 mi Calm Calm - N/A   Clear
5:15 AM 30.2 °F - 26.6 °F 86% 30.20 in 10.0 mi Calm Calm - N/A   Clear
5:35 AM 30.2 °F - 24.8 °F 80% 30.19 in 10.0 mi Calm Calm - N/A   Clear
5:55 AM 30.2 °F - 24.8 °F 80% 30.20 in 10.0 mi Calm Calm - N/A   Clear
6:15 AM 30.2 °F 26.7 °F 26.6 °F 86% 30.20 in 10.0 mi NNE 3.5 mph - N/A   Clear
6:35 AM 30.2 °F 26.7 °F 26.6 °F 86% 30.22 in 10.0 mi NNE 3.5 mph - N/A   Clear
6:55 AM 30.2 °F - 26.6 °F 86% 30.21 in 10.0 mi Calm Calm - N/A   Clear
7:15 AM 30.2 °F - 26.6 °F 86% 30.22 in 10.0 mi Calm Calm - N/A   Clear
7:35 AM 30.2 °F - 26.6 °F 86% 30.22 in 10.0 mi Calm Calm - N/A   Clear
7:55 AM 32.0 °F - 26.6 °F 80% 30.22 in 10.0 mi Calm Calm - N/A   Clear
8:15 AM 32.0 °F - 28.4 °F 87% 30.23 in 10.0 mi Calm Calm - N/A   Clear
8:55 AM 33.8 °F 26.4 °F 28.4 °F 81% 30.23 in 10.0 mi East 9.2 mph - N/A   Clear
9:15 AM 33.8 °F 27.0 °F 30.2 °F 87% 30.22 in 10.0 mi East 8.1 mph - N/A   Clear
9:35 AM 35.6 °F 30.7 °F 28.4 °F 75% 30.23 in 10.0 mi ENE 5.8 mph - N/A   Clear
9:55 AM 35.6 °F 28.6 °F 30.2 °F 81% 30.22 in 10.0 mi East 9.2 mph - N/A   Clear
10:15 AM 37.4 °F 31.4 °F 30.2 °F 75% 30.22 in 10.0 mi East 8.1 mph 16.1 mph N/A   Clear
10:35 AM 39.2 °F 34.2 °F 30.2 °F 70% 30.22 in 10.0 mi ESE 6.9 mph - N/A   Clear
10:55 AM 39.2 °F 30.5 °F 30.2 °F 70% 30.20 in 10.0 mi ESE 16.1 mph 19.6 mph N/A   Clear
11:15 AM 41.0 °F 33.9 °F 30.2 °F 65% 30.20 in 10.0 mi ESE 12.7 mph 23.0 mph N/A   Clear
11:35 AM 42.8 °F 34.8 °F 30.2 °F 61% 30.19 in 10.0 mi East 17.3 mph 23.0 mph N/A   Clear
11:55 AM 42.8 °F 35.1 °F 30.2 °F 61% 30.19 in 10.0 mi ESE 16.1 mph 20.7 mph N/A   Scattered Clouds
12:15 PM 42.8 °F 36.6 °F 32.0 °F 66% 30.18 in 10.0 mi ESE 11.5 mph 16.1 mph N/A   Mostly Cloudy
12:35 PM 42.8 °F 37.5 °F 32.0 °F 66% 30.17 in 10.0 mi ESE 9.2 mph 19.6 mph N/A   Overcast
12:55 PM 42.8 °F 37.0 °F 32.0 °F 66% 30.15 in 10.0 mi ESE 10.4 mph 18.4 mph N/A   Overcast
1:15 PM 42.8 °F 36.2 °F 32.0 °F 66% 30.15 in 10.0 mi ESE 12.7 mph 20.7 mph N/A   Overcast
1:35 PM 42.8 °F 35.1 °F 32.0 °F 66% 30.14 in 10.0 mi East 16.1 mph 23.0 mph N/A   Overcast
1:55 PM 42.8 °F 35.8 °F 32.0 °F 66% 30.13 in 10.0 mi East 13.8 mph 19.6 mph N/A   Overcast
2:15 PM 42.8 °F 35.4 °F 32.0 °F 66% 30.11 in 10.0 mi East 15.0 mph 24.2 mph N/A   Overcast
2:35 PM 42.8 °F 34.8 °F 32.0 °F 66% 30.09 in 10.0 mi East 17.3 mph - N/A   Overcast
2:55 PM 42.8 °F 35.1 °F 32.0 °F 66% 30.08 in 10.0 mi East 16.1 mph 27.6 mph N/A   Overcast
3:15 PM 42.8 °F 36.2 °F 32.0 °F 66% 30.08 in 10.0 mi ESE 12.7 mph 21.9 mph N/A   Overcast
3:35 PM 42.8 °F 36.2 °F 33.8 °F 70% 30.07 in 8.0 mi East 12.7 mph 19.6 mph N/A   Overcast
3:55 PM 39.2 °F 30.5 °F 33.8 °F 81% 30.06 in 8.0 mi East 16.1 mph 24.2 mph N/A   Overcast
4:15 PM 39.2 °F 31.2 °F 33.8 °F 81% 30.04 in 9.0 mi East 13.8 mph 23.0 mph N/A   Mostly Cloudy
4:35 PM 39.2 °F 29.6 °F 33.8 °F 81% 30.03 in 10.0 mi East 19.6 mph 27.6 mph N/A   Mostly Cloudy
4:55 PM 39.2 °F 29.8 °F 33.8 °F 81% 30.02 in 10.0 mi ESE 18.4 mph 32.2 mph N/A   Mostly Cloudy
5:15 PM 39.2 °F 29.8 °F 33.8 °F 81% 30.01 in 10.0 mi East 18.4 mph 27.6 mph N/A   Scattered Clouds
5:35 PM 39.2 °F 30.8 °F 33.8 °F 81% 30.00 in 10.0 mi East 15.0 mph 26.5 mph N/A   Mostly Cloudy
5:55 PM 39.2 °F 30.5 °F 33.8 °F 81% 29.98 in 10.0 mi East 16.1 mph 33.4 mph N/A   Overcast
6:15 PM 39.2 °F 29.6 °F 33.8 °F 81% 29.95 in 10.0 mi East 19.6 mph 34.5 mph N/A   Overcast
6:35 PM 39.2 °F 29.0 °F 35.6 °F 87% 29.94 in 10.0 mi East 21.9 mph 35.7 mph N/A   Overcast
6:55 PM 39.2 °F 28.3 °F 35.6 °F 87% 29.93 in 8.0 mi East 25.3 mph 38.0 mph N/A   Overcast
7:15 PM 37.4 °F 26.4 °F 35.6 °F 93% 29.91 in 5.0 mi East 23.0 mph 36.8 mph N/A   Overcast
7:35 PM 37.4 °F 26.1 °F 35.6 °F 93% 29.89 in 8.0 mi East 24.2 mph 35.7 mph N/A Rain Light Rain
7:55 PM 37.4 °F 26.6 °F 35.6 °F 93% 29.89 in 8.0 mi East 21.9 mph 40.3 mph N/A   Overcast
8:15 PM 37.4 °F 26.1 °F 35.6 °F 93% 29.88 in 7.0 mi East 24.2 mph 32.2 mph N/A Rain Light Rain
8:35 PM 37.4 °F 25.6 °F 35.6 °F 93% 29.86 in 2.5 mi East 26.5 mph 36.8 mph 0.03 in   Overcast
8:55 PM 37.4 °F 26.1 °F 35.6 °F 93% 29.84 in 2.5 mi East 24.2 mph 34.5 mph 0.08 in   Overcast
9:15 PM 37.4 °F 25.9 °F 35.6 °F 93% 29.83 in 3.0 mi East 25.3 mph 39.1 mph 0.01 in   Overcast
9:35 PM 37.4 °F 27.2 °F 35.6 °F 93% 29.83 in 3.0 mi East 19.6 mph 40.3 mph 0.03 in Rain Light Rain
9:55 PM 37.4 °F 26.1 °F 35.6 °F 93% 29.80 in 2.0 mi East 24.2 mph 33.4 mph 0.14 in Rain Heavy Rain
10:15 PM 37.4 °F 27.2 °F 37.4 °F 100% 29.79 in 3.0 mi East 19.6 mph 36.8 mph 0.04 in   Overcast
10:35 PM 37.4 °F 26.6 °F 37.4 °F 100% 29.78 in 1.8 mi East 21.9 mph 36.8 mph 0.11 in Rain Rain
10:55 PM 37.4 °F 27.2 °F 35.6 °F 93% 29.76 in 3.0 mi ENE 19.6 mph 33.4 mph 0.17 in   Overcast
11:15 PM 37.4 °F 29.3 °F 35.6 °F 93% 29.76 in 2.5 mi ENE 12.7 mph 28.8 mph 0.05 in Rain Rain
11:35 PM 37.4 °F 27.5 °F 35.6 °F 93% 29.76 in 2.5 mi ENE 18.4 mph 28.8 mph 0.09 in Rain Light Rain